| time (UTC) | temp F | wind direction | speed MPH | gust MPH | rain 1hr in | rain 24hr in | rain mn in | humidity % | barometer mb |
| 20260503211556 | 72 | 0 | 0.0 | 5.0 | 0.00 | 0.00 | 0.00 | 47 | 1016.5 |
| 20260503210054 | 73 | 240 | 1.0 | 4.0 | 0.00 | 0.00 | 0.00 | 48 | 1016.7 |
| 20260503204620 | 72 | 271 | 1.0 | 9.0 | 0.00 | 0.00 | 0.00 | 47 | 1016.8 |
| 20260503203102 | 72 | 153 | 1.0 | 6.0 | 0.00 | 0.00 | 0.00 | 46 | 1016.7 |
| 20260503201558 | 72 | 254 | 3.0 | 9.0 | 0.00 | 0.00 | 0.00 | 47 | 1017.1 |
| 20260503200057 | 73 | 0 | 2.0 | 8.0 | 0.00 | 0.00 | 0.00 | 47 | 1017.1 |
| 20260503194600 | 72 | 276 | 1.0 | 8.0 | 0.00 | 0.03 | 0.00 | 46 | 1017.4 |
| 20260503193118 | 72 | 289 | 1.0 | 6.0 | 0.00 | 0.03 | 0.00 | 46 | 1017.5 |
| 20260503191611 | 70 | 286 | 0.0 | 4.0 | 0.00 | 0.03 | 0.00 | 49 | 1017.9 |
| 20260503190054 | 70 | 0 | 0.0 | 5.0 | 0.00 | 0.03 | 0.00 | 52 | 1018.3 |
| 20260503184556 | 70 | 291 | 1.0 | 4.0 | 0.00 | 0.10 | 0.00 | 52 | 1018.4 |
| 20260503183101 | 69 | 0 | 0.0 | 5.0 | 0.00 | 0.10 | 0.00 | 50 | 1018.6 |
| 20260503181559 | 70 | 314 | 1.0 | 8.0 | 0.00 | 0.10 | 0.00 | 54 | 1018.7 |
| 20260503174556 | 70 | 290 | 1.0 | 6.0 | 0.00 | 0.16 | 0.00 | 52 | 1018.7 |
| 20260503173109 | 70 | 325 | 1.0 | 8.0 | 0.00 | 0.16 | 0.00 | 50 | 1018.9 |
| 20260503170118 | 68 | 126 | 1.0 | 8.0 | 0.00 | 0.16 | 0.00 | 52 | 1019.1 |
| 20260503160109 | 65 | 182 | 1.0 | 5.0 | 0.00 | 0.20 | 0.00 | 53 | 1019.6 |
| 20260503100104 | 45 | 0 | 0.0 | 0.0 | 0.00 | 0.83 | 0.00 | 97 | 1017.1 |
| 20260503081608 | 47 | 0 | 0.0 | 0.0 | 0.00 | 0.97 | 0.00 | 97 | 1016.5 |
| 20260503071611 | 47 | 0 | 0.0 | 0.0 | 0.00 | 1.04 | 0.00 | 97 | 1015.9 |
| 20260503054608 | 49 | 0 | 0.0 | 0.0 | 0.00 | 1.10 | 0.00 | 96 | 1015.9 |
| 20260503053053 | 49 | 0 | 0.0 | 0.0 | 0.00 | 1.10 | 0.00 | 96 | 1015.8 |
| 20260503051553 | 50 | 0 | 0.0 | 0.0 | 0.00 | 1.10 | 0.00 | 96 | 1015.8 |
| 20260503050055 | 50 | 0 | 0.0 | 0.0 | 0.00 | 1.10 | 0.00 | 96 | 1015.7 |
| 20260503044558 | 50 | 0 | 0.0 | 0.0 | 0.00 | 1.10 | 0.00 | 96 | 1015.5 |
| 20260503043058 | 51 | 0 | 0.0 | 0.0 | 0.00 | 1.10 | 0.00 | 96 | 1015.4 |
| 20260503041555 | 51 | 0 | 0.0 | 0.0 | 0.00 | 1.10 | 0.00 | 96 | 1015.1 |
| 20260503040058 | 51 | 0 | 0.0 | 0.0 | 0.00 | 1.10 | 0.00 | 96 | 1015.0 |
| 20260503034555 | 51 | 0 | 0.0 | 0.0 | 0.00 | 1.11 | 1.10 | 96 | 1015.1 |
| 20260503033054 | 51 | 0 | 0.0 | 0.0 | 0.00 | 1.11 | 1.10 | 96 | 1014.9 |
| 20260503031553 | 52 | 0 | 0.0 | 0.0 | 0.00 | 1.11 | 1.10 | 96 | 1014.6 |
| 20260503024557 | 53 | 0 | 0.0 | 0.0 | 0.00 | 1.11 | 1.10 | 96 | 1014.1 |
| 20260503023056 | 53 | 0 | 0.0 | 1.0 | 0.00 | 1.11 | 1.10 | 95 | 1013.7 |
| 20260503021553 | 53 | 0 | 0.0 | 2.0 | 0.00 | 1.11 | 1.10 | 95 | 1013.7 |
| 20260503020056 | 54 | 287 | 0.0 | 1.0 | 0.00 | 1.11 | 1.10 | 95 | 1013.6 |
| 20260503014622 | 54 | 0 | 0.0 | 2.0 | 0.00 | 1.11 | 1.10 | 95 | 1013.3 |
| 20260503013053 | 54 | 301 | 0.0 | 3.0 | 0.00 | 1.11 | 1.10 | 95 | 1013.2 |
| 20260503011554 | 54 | 0 | 0.0 | 3.0 | 0.00 | 1.11 | 1.10 | 96 | 1012.8 |
| 20260503010056 | 55 | 0 | 0.0 | 3.0 | 0.00 | 1.11 | 1.10 | 95 | 1012.6 |
| 20260503004553 | 55 | 0 | 0.0 | 4.0 | 0.00 | 1.11 | 1.10 | 96 | 1012.4 |
| 20260503003057 | 55 | 317 | 0.0 | 3.0 | 0.00 | 1.11 | 1.10 | 96 | 1012.4 |
| 20260503001555 | 55 | 0 | 1.0 | 4.0 | 0.00 | 1.11 | 1.10 | 96 | 1012.1 |
| 20260503000052 | 55 | 0 | 0.0 | 5.0 | 0.00 | 1.11 | 1.10 | 96 | 1012.0 |
| 20260502234559 | 55 | 327 | 1.0 | 4.0 | 0.00 | 1.11 | 1.10 | 96 | 1011.9 |
| 20260502233058 | 55 | 280 | 1.0 | 4.0 | 0.00 | 1.11 | 1.10 | 95 | 1011.7 |
| 20260502231607 | 56 | 306 | 0.0 | 2.0 | 0.00 | 1.11 | 1.10 | 96 | 1011.6 |
| 20260502230055 | 56 | 330 | 0.0 | 4.0 | 0.00 | 1.11 | 1.10 | 96 | 1011.2 |
| 20260502224556 | 56 | 257 | 0.0 | 4.0 | 0.00 | 1.11 | 1.10 | 96 | 1011.6 |
| 20260502223057 | 56 | 252 | 0.0 | 4.0 | 0.00 | 1.11 | 1.10 | 96 | 1011.4 |
| 20260502221558 | 56 | 151 | 1.0 | 6.0 | 0.00 | 1.11 | 1.10 | 96 | 1011.4 |
| 20260502220054 | 56 | 130 | 2.0 | 8.0 | 0.00 | 1.11 | 1.10 | 96 | 1011.4 |
| 20260502214559 | 56 | 282 | 1.0 | 7.0 | 0.00 | 1.13 | 1.10 | 96 | 1011.0 |
| 20260502213055 | 57 | 288 | 0.0 | 10.0 | 0.00 | 1.13 | 1.10 | 96 | 1010.8 |